Tracking 28126 objects as of 2-Oct-2023
HD Live streaming from Space Station
objects crossing your sky now

OBJECT G

Track OBJECT G now!
10-day predictions


NORAD ID: 55254
Int'l Code: 2023-007G
Perigee: 474.9 km
Apogee: 484.3 km
Inclination: 97.4 °
Period: 94.0 minutes
Semi major axis: 6850 km
RCS: Unknown
Launch date: January 15, 2023
Source: People's Republic of China (PRC)
Launch site: Taiyaun Space Center, China (TSC)
Your satellite tracking list
Your tracking list is empty




NASA's NSSDC Master Catalog

Two Line Element Set (TLE):
1 55254U 23007G   23274.87141126  .00028789  00000-0  95707-3 0  9996
2 55254  97.3505 345.7217 0006820  73.1032 287.0957 15.31118027 39620
Source of the keplerian elements: AFSPC